Location: Kershaw
(34.5481°N, 80.5823°W)
Time: 11:21:09
(UTC+00:00)

Explorer 7 - Pass Details

Date: 06 October 2022
Orbit: 481 x 665 km, 50.3° (Epoch: 26 November)

Event Time Altitude Azimuth Distance (km) Brightness Sun altitude
Rises 13:00:36 0° 202° (SSW) 2,929 10.5 19.1°
Reaches altitude 10° 13:03:05 10° 192° (SSW) 2,044 9.9 19.6°
Maximum altitude 13:07:15 31° 130° (SE) 1,156 10.2 20.4°
Drops below altitude 10° 13:11:30 10° 69° (ENE) 2,087 10.6 21.2°
Sets 13:14:04 0° 59° (ENE) 3,001 11.1 21.7°
